NORTHERN QUEENS  -  Heat Advisory Heat Advisory     Air Quality Alert Air Quality Alert        SOUTHERN QUEENS  -  Heat Advisory Heat Advisory     Air Quality Alert Air Quality Alert      

Active alerts

Northern Queens
  Details for Northern Queens Heat Advisory  +1 additional alert
Southern Queens
  Details for Southern Queens Heat Advisory  +1 additional alert


WXM80 ListenWXM80 Stop

You find our weather info also at:

UK Metoffice

WeatherCloud

Weather Underground

Northeastern Weather Network

AWEKAS

Citizen Weather Observer Program (CWOP)

HAMweather, WeatherForYou, PWS Weather


Weather Underground History page Text

Daily Summary for May 8, 2017 Units:  Both    English   Metric
« Previous Day
Next Day »
Daily Weekly Monthly Yearly Custom
  High: Low: Average:
Temperature: 61.2 °F /  16.2 °C 44.9 °F /  7.2 °C 52.4 °F /  11.3 °C
Dew Point: 41.2 °F /  5.1 °C 36.0 °F /  2.2 °C 38.5 °F /  3.6 °C
Humidity: 76 % 41 % 60 %
Wind Speed: 9.0 mph /  14.5 km/h - 3.6 mph /  5.8 km/h
Wind Gust: 18.4 mph /  29.6 km/h - -
Wind:- - West
Pressure: 29.91 in /  1012.8 hPa 29.74 in /  1007 hPa -
Precipitation: 0.01 in /  0.25 mm    
Historical Graphs
 
 
Tabular Data for May 8, 2017
Time Temperature Dew Point Pressure Wind Wind Speed Wind Gust Humidity Rainfall Rate (Hourly)
00:01 48.0 °F /  8.9 °C 40.1 °F /  4.5 °C 29.74 in /  1007 hPa WNW 3.9 mph /  6.3 km/h 9.2 mph /  14.8 km/h 74 % 0.00 in /  0 mm
00:06 47.9 °F /  8.8 °C 40.0 °F /  4.4 °C 29.74 in /  1007 hPa West 3.2 mph /  5.1 km/h 10.0 mph /  16.1 km/h 74 % 0.00 in /  0 mm
00:11 47.9 °F /  8.8 °C 40.0 °F /  4.4 °C 29.74 in /  1007 hPa West 5.1 mph /  8.2 km/h 10.4 mph /  16.7 km/h 74 % 0.00 in /  0 mm
00:16 47.9 °F /  8.8 °C 40.0 °F /  4.4 °C 29.74 in /  1007 hPa West 6.6 mph /  10.6 km/h 13.8 mph /  22.2 km/h 74 % 0.00 in /  0 mm
00:21 47.9 °F /  8.8 °C 40.0 °F /  4.4 °C 29.75 in /  1007.3 hPa NW 5.9 mph /  9.5 km/h 10.4 mph /  16.7 km/h 74 % 0.00 in /  0 mm
00:26 47.8 °F /  8.8 °C 39.9 °F /  4.4 °C 29.75 in /  1007.3 hPa NW 3.9 mph /  6.3 km/h 9.2 mph /  14.8 km/h 74 % 0.00 in /  0 mm
00:31 47.7 °F /  8.7 °C 39.8 °F /  4.3 °C 29.74 in /  1007 hPa WNW 3.9 mph /  6.3 km/h 6.0 mph /  9.7 km/h 74 % 0.00 in /  0 mm
00:36 47.7 °F /  8.7 °C 40.2 °F /  4.6 °C 29.74 in /  1007 hPa West 4.1 mph /  6.6 km/h 10.0 mph /  16.1 km/h 75 % 0.00 in /  0 mm
00:41 47.6 °F /  8.7 °C 39.7 °F /  4.3 °C 29.74 in /  1007 hPa WNW 5.7 mph /  9.2 km/h 10.0 mph /  16.1 km/h 74 % 0.00 in /  0 mm
00:46 47.6 °F /  8.7 °C 39.7 °F /  4.3 °C 29.74 in /  1007 hPa West 4.5 mph /  7.2 km/h 10.4 mph /  16.7 km/h 74 % 0.00 in /  0 mm
00:51 47.6 °F /  8.7 °C 39.7 °F /  4.3 °C 29.74 in /  1007 hPa NW 4.6 mph /  7.4 km/h 11.5 mph /  18.5 km/h 74 % 0.00 in /  0 mm
00:56 47.6 °F /  8.7 °C 39.7 °F /  4.3 °C 29.74 in /  1007 hPa WNW 8.0 mph /  12.9 km/h 11.5 mph /  18.5 km/h 74 % 0.00 in /  0 mm
01:01 47.5 °F /  8.6 °C 39.6 °F /  4.2 °C 29.74 in /  1007 hPa WNW 3.3 mph /  5.3 km/h 6.9 mph /  11.1 km/h 74 % 0.00 in /  0 mm
01:06 47.4 °F /  8.6 °C 39.5 °F /  4.2 °C 29.74 in /  1007 hPa WSW 3.4 mph /  5.5 km/h 10.4 mph /  16.7 km/h 74 % 0.00 in /  0 mm
01:11 47.4 °F /  8.6 °C 39.5 °F /  4.2 °C 29.74 in /  1007 hPa WNW 5.9 mph /  9.5 km/h 9.2 mph /  14.8 km/h 74 % 0.00 in /  0 mm
01:16 47.4 °F /  8.6 °C 39.5 °F /  4.2 °C 29.74 in /  1007 hPa West 4.8 mph /  7.7 km/h 11.5 mph /  18.5 km/h 74 % 0.00 in /  0 mm
01:21 47.3 °F /  8.5 °C 39.4 °F /  4.1 °C 29.74 in /  1007 hPa WNW 2.8 mph /  4.5 km/h 8.1 mph /  13 km/h 74 % 0.00 in /  0 mm
01:26 47.3 °F /  8.5 °C 39.4 °F /  4.1 °C 29.75 in /  1007.3 hPa WNW 1.9 mph /  3.1 km/h 5.0 mph /  8 km/h 74 % 0.00 in /  0 mm
01:31 47.2 °F /  8.4 °C 39.3 °F /  4.1 °C 29.75 in /  1007.3 hPa West 5.0 mph /  8 km/h 6.9 mph /  11.1 km/h 74 % 0.00 in /  0 mm
01:37 47.2 °F /  8.4 °C 39.3 °F /  4.1 °C 29.74 in /  1007 hPa West 3.4 mph /  5.5 km/h 8.0 mph /  12.9 km/h 74 % 0.00 in /  0 mm
01:42 47.2 °F /  8.4 °C 39.3 °F /  4.1 °C 29.74 in /  1007 hPa WSW 5.2 mph /  8.4 km/h 9.2 mph /  14.8 km/h 74 % 0.00 in /  0 mm
01:47 47.1 °F /  8.4 °C 38.9 °F /  3.8 °C 29.75 in /  1007.3 hPa West 2.4 mph /  3.9 km/h 5.8 mph /  9.3 km/h 73 % 0.00 in /  0 mm
01:52 47.1 °F /  8.4 °C 38.9 °F /  3.8 °C 29.75 in /  1007.3 hPa West 1.3 mph /  2.1 km/h 4.6 mph /  7.4 km/h 73 % 0.00 in /  0 mm
01:57 47.1 °F /  8.4 °C 38.9 °F /  3.8 °C 29.75 in /  1007.3 hPa WSW 5.0 mph /  8 km/h 10.4 mph /  16.7 km/h 73 % 0.00 in /  0 mm
02:02 47.1 °F /  8.4 °C 38.9 °F /  3.8 °C 29.75 in /  1007.3 hPa West 2.5 mph /  4 km/h 8.0 mph /  12.9 km/h 73 % 0.00 in /  0 mm
02:07 47.0 °F /  8.3 °C 38.8 °F /  3.8 °C 29.75 in /  1007.3 hPa WSW 4.3 mph /  6.9 km/h 9.2 mph /  14.8 km/h 73 % 0.00 in /  0 mm
02:12 47.0 °F /  8.3 °C 38.8 °F /  3.8 °C 29.75 in /  1007.3 hPa WNW 5.0 mph /  8 km/h 10.4 mph /  16.7 km/h 73 % 0.00 in /  0 mm
02:17 47.0 °F /  8.3 °C 39.1 °F /  3.9 °C 29.75 in /  1007.3 hPa WNW 3.4 mph /  5.5 km/h 9.2 mph /  14.8 km/h 74 % 0.00 in /  0 mm
02:22 46.9 °F /  8.3 °C 39.0 °F /  3.9 °C 29.75 in /  1007.3 hPa SW 5.5 mph /  8.9 km/h 12.7 mph /  20.4 km/h 74 % 0.00 in /  0 mm
02:27 46.9 °F /  8.3 °C 39.0 °F /  3.9 °C 29.75 in /  1007.3 hPa WSW 4.1 mph /  6.6 km/h 8.1 mph /  13 km/h 74 % 0.00 in /  0 mm
02:32 46.8 °F /  8.2 °C 38.9 °F /  3.8 °C 29.75 in /  1007.3 hPa West 4.5 mph /  7.2 km/h 9.2 mph /  14.8 km/h 74 % 0.00 in /  0 mm
02:37 46.8 °F /  8.2 °C 38.9 °F /  3.8 °C 29.76 in /  1007.7 hPa West 3.3 mph /  5.3 km/h 4.6 mph /  7.4 km/h 74 % 0.00 in /  0 mm
02:42 46.8 °F /  8.2 °C 38.9 °F /  3.8 °C 29.76 in /  1007.7 hPa NW 4.3 mph /  6.9 km/h 9.2 mph /  14.8 km/h 74 % 0.00 in /  0 mm
02:47 46.7 °F /  8.2 °C 38.9 °F /  3.8 °C 29.75 in /  1007.3 hPa WSW 5.2 mph /  8.4 km/h 10.0 mph /  16.1 km/h 74 % 0.00 in /  0 mm
02:52 46.7 °F /  8.2 °C 38.9 °F /  3.8 °C 29.76 in /  1007.7 hPa West 3.5 mph /  5.6 km/h 14.0 mph /  22.5 km/h 74 % 0.00 in /  0 mm
02:57 46.7 °F /  8.2 °C 38.9 °F /  3.8 °C 29.76 in /  1007.7 hPa WSW 3.2 mph /  5.1 km/h 6.9 mph /  11.1 km/h 74 % 0.00 in /  0 mm
03:02 46.6 °F /  8.1 °C 38.8 °F /  3.8 °C 29.75 in /  1007.3 hPa WSW 3.7 mph /  6 km/h 12.7 mph /  20.4 km/h 74 % 0.00 in /  0 mm
03:07 46.6 °F /  8.1 °C 38.8 °F /  3.8 °C 29.76 in /  1007.7 hPa WNW 4.9 mph /  7.9 km/h 6.9 mph /  11.1 km/h 74 % 0.00 in /  0 mm
03:12 46.7 °F /  8.2 °C 38.9 °F /  3.8 °C 29.76 in /  1007.7 hPa SW 5.0 mph /  8 km/h 6.9 mph /  11.1 km/h 74 % 0.00 in /  0 mm
03:18 46.6 °F /  8.1 °C 38.4 °F /  3.6 °C 29.77 in /  1008 hPa SW 8.0 mph /  12.9 km/h 12.7 mph /  20.4 km/h 73 % 0.00 in /  0 mm
03:23 46.6 °F /  8.1 °C 38.4 °F /  3.6 °C 29.77 in /  1008 hPa SW 8.8 mph /  14.2 km/h 11.0 mph /  17.7 km/h 73 % 0.00 in /  0 mm
03:28 46.6 °F /  8.1 °C 38.4 °F /  3.6 °C 29.77 in /  1008 hPa WSW 4.2 mph /  6.8 km/h 10.4 mph /  16.7 km/h 73 % 0.00 in /  0 mm
03:33 46.5 °F /  8.1 °C 38.3 °F /  3.5 °C 29.77 in /  1008 hPa SW 6.3 mph /  10.1 km/h 12.7 mph /  20.4 km/h 73 % 0.00 in /  0 mm
03:38 46.5 °F /  8.1 °C 38.3 °F /  3.5 °C 29.77 in /  1008 hPa SSW 3.8 mph /  6.1 km/h 8.1 mph /  13 km/h 73 % 0.00 in /  0 mm
03:43 46.4 °F /  8 °C 38.2 °F /  3.4 °C 29.77 in /  1008 hPa West 6.0 mph /  9.7 km/h 9.2 mph /  14.8 km/h 73 % 0.00 in /  0 mm
03:48 46.4 °F /  8 °C 38.2 °F /  3.4 °C 29.77 in /  1008 hPa West 2.1 mph /  3.4 km/h 6.9 mph /  11.1 km/h 73 % 0.00 in /  0 mm
03:53 46.4 °F /  8 °C 38.6 °F /  3.7 °C 29.77 in /  1008 hPa SW 4.1 mph /  6.6 km/h 11.5 mph /  18.5 km/h 74 % 0.00 in /  0 mm
03:58 46.3 °F /  7.9 °C 38.1 °F /  3.4 °C 29.77 in /  1008 hPa SW 5.1 mph /  8.2 km/h 9.2 mph /  14.8 km/h 73 % 0.00 in /  0 mm
04:03 46.3 °F /  7.9 °C 38.5 °F /  3.6 °C 29.77 in /  1008 hPa WSW 5.8 mph /  9.3 km/h 11.5 mph /  18.5 km/h 74 % 0.00 in /  0 mm
04:08 46.2 °F /  7.9 °C 38.4 °F /  3.6 °C 29.78 in /  1008.4 hPa WNW 6.4 mph /  10.3 km/h 11.5 mph /  18.5 km/h 74 % 0.00 in /  0 mm
04:13 46.1 °F /  7.8 °C 38.6 °F /  3.7 °C 29.78 in /  1008.4 hPa WSW 5.4 mph /  8.7 km/h 11.5 mph /  18.5 km/h 75 % 0.00 in /  0 mm
04:18 46.1 °F /  7.8 °C 38.3 °F /  3.5 °C 29.77 in /  1008 hPa WNW 5.1 mph /  8.2 km/h 8.1 mph /  13 km/h 74 % 0.00 in /  0 mm
04:23 46.1 °F /  7.8 °C 38.3 °F /  3.5 °C 29.77 in /  1008 hPa WSW 7.7 mph /  12.4 km/h 12.7 mph /  20.4 km/h 74 % 0.00 in /  0 mm
04:28 46.0 °F /  7.8 °C 38.2 °F /  3.4 °C 29.77 in /  1008 hPa West 4.1 mph /  6.6 km/h 7.0 mph /  11.3 km/h 74 % 0.00 in /  0 mm
04:33 46.0 °F /  7.8 °C 38.2 °F /  3.4 °C 29.77 in /  1008 hPa WSW 4.2 mph /  6.8 km/h 5.8 mph /  9.3 km/h 74 % 0.00 in /  0 mm
04:38 45.9 °F /  7.7 °C 38.1 °F /  3.4 °C 29.77 in /  1008 hPa SW 5.5 mph /  8.9 km/h 8.1 mph /  13 km/h 74 % 0.00 in /  0 mm
04:43 45.8 °F /  7.7 °C 38.0 °F /  3.3 °C 29.77 in /  1008 hPa WNW 2.9 mph /  4.7 km/h 6.9 mph /  11.1 km/h 74 % 0.00 in /  0 mm
04:48 45.8 °F /  7.7 °C 38.3 °F /  3.5 °C 29.77 in /  1008 hPa WNW 4.2 mph /  6.8 km/h 10.4 mph /  16.7 km/h 75 % 0.00 in /  0 mm
04:53 45.8 °F /  7.7 °C 38.3 °F /  3.5 °C 29.78 in /  1008.4 hPa WSW 4.1 mph /  6.6 km/h 7.0 mph /  11.3 km/h 75 % 0.00 in /  0 mm
04:58 45.7 °F /  7.6 °C 38.2 °F /  3.4 °C 29.78 in /  1008.4 hPa WSW 4.4 mph /  7.1 km/h 9.0 mph /  14.5 km/h 75 % 0.00 in /  0 mm
05:03 45.6 °F /  7.6 °C 38.1 °F /  3.4 °C 29.78 in /  1008.4 hPa West 2.7 mph /  4.3 km/h 9.2 mph /  14.8 km/h 75 % 0.00 in /  0 mm
05:08 45.5 °F /  7.5 °C 38.4 °F /  3.6 °C 29.78 in /  1008.4 hPa WSW 4.1 mph /  6.6 km/h 9.2 mph /  14.8 km/h 76 % 0.00 in /  0 mm
05:14 45.4 °F /  7.4 °C 38.3 °F /  3.5 °C 29.78 in /  1008.4 hPa NW 3.4 mph /  5.5 km/h 8.1 mph /  13 km/h 76 % 0.00 in /  0 mm
05:19 45.4 °F /  7.4 °C 37.9 °F /  3.3 °C 29.78 in /  1008.4 hPa WSW 4.4 mph /  7.1 km/h 6.9 mph /  11.1 km/h 75 % 0.00 in /  0 mm
05:24 45.3 °F /  7.4 °C 37.8 °F /  3.2 °C 29.78 in /  1008.4 hPa WNW 2.8 mph /  4.5 km/h 5.8 mph /  9.3 km/h 75 % 0.00 in /  0 mm
05:29 45.2 °F /  7.3 °C 37.7 °F /  3.2 °C 29.79 in /  1008.7 hPa WNW 2.9 mph /  4.7 km/h 7.0 mph /  11.3 km/h 75 % 0.00 in /  0 mm
05:34 45.1 °F /  7.3 °C 37.6 °F /  3.1 °C 29.79 in /  1008.7 hPa WNW 4.4 mph /  7.1 km/h 6.9 mph /  11.1 km/h 75 % 0.00 in /  0 mm
05:39 45.0 °F /  7.2 °C 37.6 °F /  3.1 °C 29.79 in /  1008.7 hPa WNW 2.9 mph /  4.7 km/h 6.9 mph /  11.1 km/h 75 % 0.00 in /  0 mm
05:44 45.0 °F /  7.2 °C 37.6 °F /  3.1 °C 29.79 in /  1008.7 hPa West 5.0 mph /  8 km/h 10.4 mph /  16.7 km/h 75 % 0.00 in /  0 mm
05:49 44.9 °F /  7.2 °C 37.8 °F /  3.2 °C 29.79 in /  1008.7 hPa West 6.1 mph /  9.8 km/h 10.4 mph /  16.7 km/h 76 % 0.00 in /  0 mm
05:54 44.9 °F /  7.2 °C 37.8 °F /  3.2 °C 29.79 in /  1008.7 hPa SW 4.0 mph /  6.4 km/h 11.5 mph /  18.5 km/h 76 % 0.00 in /  0 mm
05:59 44.9 °F /  7.2 °C 37.8 °F /  3.2 °C 29.79 in /  1008.7 hPa SW 3.4 mph /  5.5 km/h 8.1 mph /  13 km/h 76 % 0.00 in /  0 mm
06:04 44.9 °F /  7.2 °C 37.8 °F /  3.2 °C 29.80 in /  1009 hPa West 5.9 mph /  9.5 km/h 10.4 mph /  16.7 km/h 76 % 0.00 in /  0 mm
06:09 44.9 °F /  7.2 °C 37.8 °F /  3.2 °C 29.80 in /  1009 hPa WNW 3.9 mph /  6.3 km/h 8.1 mph /  13 km/h 76 % 0.00 in /  0 mm
06:14 44.9 °F /  7.2 °C 37.8 °F /  3.2 °C 29.80 in /  1009 hPa NW 3.1 mph /  5 km/h 8.1 mph /  13 km/h 76 % 0.00 in /  0 mm
06:19 44.9 °F /  7.2 °C 37.8 °F /  3.2 °C 29.80 in /  1009 hPa WSW 4.4 mph /  7.1 km/h 9.2 mph /  14.8 km/h 76 % 0.00 in /  0 mm
06:24 45.0 °F /  7.2 °C 37.6 °F /  3.1 °C 29.81 in /  1009.4 hPa West 4.4 mph /  7.1 km/h 8.1 mph /  13 km/h 75 % 0.00 in /  0 mm
06:29 45.2 °F /  7.3 °C 37.7 °F /  3.2 °C 29.81 in /  1009.4 hPa WNW 3.3 mph /  5.3 km/h 5.8 mph /  9.3 km/h 75 % 0.00 in /  0 mm
06:34 45.3 °F /  7.4 °C 37.8 °F /  3.2 °C 29.81 in /  1009.4 hPa West 4.9 mph /  7.9 km/h 9.2 mph /  14.8 km/h 75 % 0.00 in /  0 mm
06:39 45.6 °F /  7.6 °C 38.1 °F /  3.4 °C 29.81 in /  1009.4 hPa West 5.8 mph /  9.3 km/h 10.4 mph /  16.7 km/h 75 % 0.00 in /  0 mm
06:44 45.8 °F /  7.7 °C 38.0 °F /  3.3 °C 29.81 in /  1009.4 hPa WSW 2.3 mph /  3.7 km/h 6.9 mph /  11.1 km/h 74 % 0.00 in /  0 mm
06:49 46.0 °F /  7.8 °C 38.5 °F /  3.6 °C 29.81 in /  1009.4 hPa WNW 1.7 mph /  2.7 km/h 3.5 mph /  5.6 km/h 75 % 0.00 in /  0 mm
06:54 46.4 °F /  8 °C 38.6 °F /  3.7 °C 29.81 in /  1009.4 hPa West 5.0 mph /  8 km/h 9.0 mph /  14.5 km/h 74 % 0.00 in /  0 mm
06:59 46.7 °F /  8.2 °C 38.9 °F /  3.8 °C 29.81 in /  1009.4 hPa WSW 3.9 mph /  6.3 km/h 6.9 mph /  11.1 km/h 74 % 0.00 in /  0 mm
07:04 47.0 °F /  8.3 °C 38.8 °F /  3.8 °C 29.82 in /  1009.7 hPa SW 4.9 mph /  7.9 km/h 9.2 mph /  14.8 km/h 73 % 0.00 in /  0 mm
07:09 47.3 °F /  8.5 °C 38.7 °F /  3.7 °C 29.82 in /  1009.7 hPa SW 2.9 mph /  4.7 km/h 6.0 mph /  9.7 km/h 72 % 0.00 in /  0 mm
07:14 47.6 °F /  8.7 °C 38.7 °F /  3.7 °C 29.82 in /  1009.7 hPa WNW 2.6 mph /  4.2 km/h 6.9 mph /  11.1 km/h 71 % 0.00 in /  0 mm
07:19 47.8 °F /  8.8 °C 38.8 °F /  3.8 °C 29.82 in /  1009.7 hPa WSW 4.3 mph /  6.9 km/h 11.5 mph /  18.5 km/h 71 % 0.00 in /  0 mm
07:24 48.1 °F /  8.9 °C 38.8 °F /  3.8 °C 29.82 in /  1009.7 hPa NW 1.9 mph /  3.1 km/h 6.9 mph /  11.1 km/h 70 % 0.00 in /  0 mm
07:29 48.3 °F /  9.1 °C 38.6 °F /  3.7 °C 29.82 in /  1009.7 hPa SW 5.7 mph /  9.2 km/h 8.1 mph /  13 km/h 69 % 0.00 in /  0 mm
07:34 48.3 °F /  9.1 °C 38.6 °F /  3.7 °C 29.82 in /  1009.7 hPa WNW 3.8 mph /  6.1 km/h 5.8 mph /  9.3 km/h 69 % 0.00 in /  0 mm
07:40 48.4 °F /  9.1 °C 38.7 °F /  3.7 °C 29.83 in /  1010 hPa West 4.0 mph /  6.4 km/h 7.0 mph /  11.3 km/h 69 % 0.00 in /  0 mm
07:45 48.5 °F /  9.2 °C 38.4 °F /  3.6 °C 29.82 in /  1009.7 hPa WSW 4.8 mph /  7.7 km/h 8.0 mph /  12.9 km/h 68 % 0.00 in /  0 mm
07:50 48.6 °F /  9.2 °C 38.5 °F /  3.6 °C 29.82 in /  1009.7 hPa NW 4.9 mph /  7.9 km/h 8.1 mph /  13 km/h 68 % 0.00 in /  0 mm
07:55 48.9 °F /  9.4 °C 39.2 °F /  4 °C 29.82 in /  1009.7 hPa WNW 5.3 mph /  8.5 km/h 6.9 mph /  11.1 km/h 69 % 0.00 in /  0 mm
08:00 49.1 °F /  9.5 °C 39.0 °F /  3.9 °C 29.82 in /  1009.7 hPa WSW 3.1 mph /  5 km/h 6.9 mph /  11.1 km/h 68 % 0.00 in /  0 mm
08:05 49.3 °F /  9.6 °C 38.8 °F /  3.8 °C 29.82 in /  1009.7 hPa NW 4.3 mph /  6.9 km/h 11.5 mph /  18.5 km/h 67 % 0.00 in /  0 mm
08:10 49.4 °F /  9.7 °C 38.5 °F /  3.6 °C 29.82 in /  1009.7 hPa SW 1.4 mph /  2.3 km/h 3.5 mph /  5.6 km/h 66 % 0.00 in /  0 mm
08:15 49.6 °F /  9.8 °C 39.5 °F /  4.2 °C 29.82 in /  1009.7 hPa West 7.4 mph /  11.9 km/h 11.5 mph /  18.5 km/h 68 % 0.00 in /  0 mm
08:20 49.7 °F /  9.8 °C 39.2 °F /  4 °C 29.82 in /  1009.7 hPa NW 7.3 mph /  11.7 km/h 13.8 mph /  22.2 km/h 67 % 0.00 in /  0 mm
08:25 49.8 °F /  9.9 °C 39.3 °F /  4.1 °C 29.83 in /  1010 hPa WSW 5.3 mph /  8.5 km/h 9.2 mph /  14.8 km/h 67 % 0.00 in /  0 mm
08:30 49.9 °F /  9.9 °C 39.0 °F /  3.9 °C 29.83 in /  1010 hPa WNW 7.1 mph /  11.4 km/h 15.0 mph /  24.1 km/h 66 % 0.00 in /  0 mm
08:35 49.9 °F /  9.9 °C 39.0 °F /  3.9 °C 29.82 in /  1009.7 hPa West 3.8 mph /  6.1 km/h 10.4 mph /  16.7 km/h 66 % 0.00 in /  0 mm
08:40 50.0 °F /  10 °C 39.5 °F /  4.2 °C 29.82 in /  1009.7 hPa West 3.4 mph /  5.5 km/h 6.9 mph /  11.1 km/h 67 % 0.00 in /  0 mm
08:45 50.3 °F /  10.2 °C 39.0 °F /  3.9 °C 29.83 in /  1010 hPa WNW 5.2 mph /  8.4 km/h 11.5 mph /  18.5 km/h 65 % 0.00 in /  0 mm
08:50 50.4 °F /  10.2 °C 39.1 °F /  3.9 °C 29.82 in /  1009.7 hPa West 6.3 mph /  10.1 km/h 12.7 mph /  20.4 km/h 65 % 0.00 in /  0 mm
08:55 50.6 °F /  10.3 °C 39.3 °F /  4.1 °C 29.83 in /  1010 hPa SSW 8.6 mph /  13.8 km/h 11.5 mph /  18.5 km/h 65 % 0.00 in /  0 mm
09:00 50.8 °F /  10.4 °C 39.1 °F /  3.9 °C 29.83 in /  1010 hPa SSW 4.8 mph /  7.7 km/h 9.2 mph /  14.8 km/h 64 % 0.00 in /  0 mm
09:05 50.9 °F /  10.5 °C 38.7 °F /  3.7 °C 29.83 in /  1010 hPa WSW 6.4 mph /  10.3 km/h 11.5 mph /  18.5 km/h 63 % 0.00 in /  0 mm
09:10 51.0 °F /  10.6 °C 39.2 °F /  4 °C 29.83 in /  1010 hPa South 3.4 mph /  5.5 km/h 6.9 mph /  11.1 km/h 64 % 0.00 in /  0 mm
09:15 51.2 °F /  10.7 °C 39.0 °F /  3.9 °C 29.83 in /  1010 hPa WNW 4.8 mph /  7.7 km/h 7.0 mph /  11.3 km/h 63 % 0.00 in /  0 mm
09:20 51.6 °F /  10.9 °C 39.4 °F /  4.1 °C 29.83 in /  1010 hPa WSW 6.1 mph /  9.8 km/h 11.5 mph /  18.5 km/h 63 % 0.00 in /  0 mm
09:25 52.0 °F /  11.1 °C 39.4 °F /  4.1 °C 29.83 in /  1010 hPa WSW 4.4 mph /  7.1 km/h 10.4 mph /  16.7 km/h 62 % 0.00 in /  0 mm
09:30 52.4 °F /  11.3 °C 39.3 °F /  4.1 °C 29.83 in /  1010 hPa NW 6.3 mph /  10.1 km/h 17.3 mph /  27.8 km/h 61 % 0.00 in /  0 mm
09:35 52.7 °F /  11.5 °C 39.2 °F /  4 °C 29.83 in /  1010 hPa WNW 7.2 mph /  11.6 km/h 13.8 mph /  22.2 km/h 60 % 0.00 in /  0 mm
09:40 52.9 °F /  11.6 °C 39.8 °F /  4.3 °C 29.83 in /  1010 hPa SW 3.3 mph /  5.3 km/h 11.0 mph /  17.7 km/h 61 % 0.00 in /  0 mm
09:45 53.1 °F /  11.7 °C 39.6 °F /  4.2 °C 29.83 in /  1010 hPa WSW 4.4 mph /  7.1 km/h 12.7 mph /  20.4 km/h 60 % 0.00 in /  0 mm
09:50 53.4 °F /  11.9 °C 40.3 °F /  4.6 °C 29.83 in /  1010 hPa SW 4.5 mph /  7.2 km/h 6.9 mph /  11.1 km/h 61 % 0.00 in /  0 mm
09:55 53.7 °F /  12.1 °C 39.7 °F /  4.3 °C 29.83 in /  1010 hPa NW 3.1 mph /  5 km/h 9.2 mph /  14.8 km/h 59 % 0.00 in /  0 mm
10:01 53.8 °F /  12.1 °C 39.8 °F /  4.3 °C 29.83 in /  1010 hPa WSW 5.5 mph /  8.9 km/h 6.9 mph /  11.1 km/h 59 % 0.00 in /  0 mm
10:06 54.0 °F /  12.2 °C 39.5 °F /  4.2 °C 29.83 in /  1010 hPa West 3.7 mph /  6 km/h 10.4 mph /  16.7 km/h 58 % 0.00 in /  0 mm
10:11 54.2 °F /  12.3 °C 38.4 °F /  3.6 °C 29.83 in /  1010 hPa West 2.5 mph /  4 km/h 8.1 mph /  13 km/h 55 % 0.00 in /  0 mm
10:16 54.5 °F /  12.5 °C 38.2 °F /  3.4 °C 29.83 in /  1010 hPa WSW 6.0 mph /  9.7 km/h 12.0 mph /  19.3 km/h 54 % 0.00 in /  0 mm
10:21 54.7 °F /  12.6 °C 38.4 °F /  3.6 °C 29.83 in /  1010 hPa West 6.0 mph /  9.7 km/h 16.0 mph /  25.7 km/h 54 % 0.00 in /  0 mm
10:26 55.1 °F /  12.8 °C 38.3 °F /  3.5 °C 29.83 in /  1010 hPa West 9.0 mph /  14.5 km/h 14.0 mph /  22.5 km/h 53 % 0.00 in /  0 mm
10:31 55.3 °F /  12.9 °C 39.4 °F /  4.1 °C 29.83 in /  1010 hPa NW 5.0 mph /  8 km/h 8.1 mph /  13 km/h 55 % 0.00 in /  0 mm
10:36 55.5 °F /  13.1 °C 38.7 °F /  3.7 °C 29.83 in /  1010 hPa WNW 5.0 mph /  8 km/h 12.0 mph /  19.3 km/h 53 % 0.00 in /  0 mm
10:41 56.2 °F /  13.4 °C 40.3 °F /  4.6 °C 29.83 in /  1010 hPa WNW 5.0 mph /  8 km/h 12.0 mph /  19.3 km/h 55 % 0.00 in /  0 mm
10:46 56.5 °F /  13.6 °C 38.6 °F /  3.7 °C 29.83 in /  1010 hPa West 3.0 mph /  4.8 km/h 12.0 mph /  19.3 km/h 51 % 0.00 in /  0 mm
10:51 56.8 °F /  13.8 °C 38.9 °F /  3.8 °C 29.83 in /  1010 hPa West 5.0 mph /  8 km/h 14.0 mph /  22.5 km/h 51 % 0.00 in /  0 mm
10:56 57.1 °F /  13.9 °C 39.6 °F /  4.2 °C 29.83 in /  1010 hPa West 5.0 mph /  8 km/h 14.0 mph /  22.5 km/h 52 % 0.00 in /  0 mm
10:57 57.2 °F /  14 °C 38.7 °F /  3.7 °C 29.83 in /  1010 hPa NW 4.5 mph /  7.2 km/h 9.2 mph /  14.8 km/h 50 % 0.00 in /  0 mm
11:02 57.3 °F /  14.1 °C 38.3 °F /  3.5 °C 29.83 in /  1010 hPa WSW 7.4 mph /  11.9 km/h 12.0 mph /  19.3 km/h 49 % 0.00 in /  0 mm
11:07 57.7 °F /  14.3 °C 38.7 °F /  3.7 °C 29.83 in /  1010 hPa WSW 8.1 mph /  13 km/h 16.1 mph /  25.9 km/h 49 % 0.00 in /  0 mm
11:12 57.8 °F /  14.3 °C 38.2 °F /  3.4 °C 29.83 in /  1010 hPa SW 6.5 mph /  10.5 km/h 13.8 mph /  22.2 km/h 48 % 0.00 in /  0 mm
11:17 57.6 °F /  14.2 °C 37.0 °F /  2.8 °C 29.83 in /  1010 hPa West 9.0 mph /  14.5 km/h 13.0 mph /  20.9 km/h 46 % 0.00 in /  0 mm
11:23 57.3 °F /  14.1 °C 37.2 °F /  2.9 °C 29.83 in /  1010 hPa NW 7.2 mph /  11.6 km/h 9.2 mph /  14.8 km/h 47 % 0.00 in /  0 mm
11:28 57.2 °F /  14 °C 36.6 °F /  2.6 °C 29.83 in /  1010 hPa SSW 5.8 mph /  9.3 km/h 11.5 mph /  18.5 km/h 46 % 0.00 in /  0 mm
11:33 57.5 °F /  14.2 °C 37.9 °F /  3.3 °C 29.83 in /  1010 hPa West 6.7 mph /  10.8 km/h 11.5 mph /  18.5 km/h 48 % 0.00 in /  0 mm
11:38 57.8 °F /  14.3 °C 39.3 °F /  4.1 °C 29.83 in /  1010 hPa WSW 4.7 mph /  7.6 km/h 10.0 mph /  16.1 km/h 50 % 0.00 in /  0 mm
11:43 58.2 °F /  14.6 °C 38.1 °F /  3.4 °C 29.83 in /  1010 hPa SW 2.8 mph /  4.5 km/h 10.4 mph /  16.7 km/h 47 % 0.00 in /  0 mm
11:48 58.2 °F /  14.6 °C 37.5 °F /  3.1 °C 29.83 in /  1010 hPa WSW 6.0 mph /  9.7 km/h 10.4 mph /  16.7 km/h 46 % 0.00 in /  0 mm
11:53 58.4 °F /  14.7 °C 38.8 °F /  3.8 °C 29.83 in /  1010 hPa WNW 6.7 mph /  10.8 km/h 10.0 mph /  16.1 km/h 48 % 0.00 in /  0 mm
11:58 58.6 °F /  14.8 °C 36.7 °F /  2.6 °C 29.83 in /  1010 hPa NW 6.3 mph /  10.1 km/h 12.7 mph /  20.4 km/h 44 % 0.00 in /  0 mm
12:03 58.8 °F /  14.9 °C 36.9 °F /  2.7 °C 29.83 in /  1010 hPa WNW 8.4 mph /  13.5 km/h 15.0 mph /  24.1 km/h 44 % 0.00 in /  0 mm
12:08 58.9 °F /  14.9 °C 38.1 °F /  3.4 °C 29.83 in /  1010 hPa WSW 5.9 mph /  9.5 km/h 12.0 mph /  19.3 km/h 46 % 0.00 in /  0 mm
12:13 58.8 °F /  14.9 °C 36.9 °F /  2.7 °C 29.83 in /  1010 hPa SW 7.7 mph /  12.4 km/h 11.5 mph /  18.5 km/h 44 % 0.00 in /  0 mm
12:18 58.9 °F /  14.9 °C 38.1 °F /  3.4 °C 29.83 in /  1010 hPa WNW 6.9 mph /  11.1 km/h 15.0 mph /  24.1 km/h 46 % 0.00 in /  0 mm
12:23 58.9 °F /  14.9 °C 37.0 °F /  2.8 °C 29.83 in /  1010 hPa WNW 7.9 mph /  12.7 km/h 13.8 mph /  22.2 km/h 44 % 0.00 in /  0 mm
12:28 58.6 °F /  14.8 °C 36.7 °F /  2.6 °C 29.83 in /  1010 hPa WSW 7.7 mph /  12.4 km/h 14.0 mph /  22.5 km/h 44 % 0.00 in /  0 mm
12:33 58.5 °F /  14.7 °C 37.2 °F /  2.9 °C 29.83 in /  1010 hPa SW 7.2 mph /  11.6 km/h 13.8 mph /  22.2 km/h 45 % 0.00 in /  0 mm
12:38 58.4 °F /  14.7 °C 36.6 °F /  2.6 °C 29.83 in /  1010 hPa WNW 8.6 mph /  13.8 km/h 11.5 mph /  18.5 km/h 44 % 0.00 in /  0 mm
12:43 58.5 °F /  14.7 °C 37.2 °F /  2.9 °C 29.83 in /  1010 hPa WNW 7.5 mph /  12.1 km/h 13.0 mph /  20.9 km/h 45 % 0.00 in /  0 mm
12:48 58.3 °F /  14.6 °C 37.0 °F /  2.8 °C 29.83 in /  1010 hPa WSW 5.3 mph /  8.5 km/h 11.5 mph /  18.5 km/h 45 % 0.00 in /  0 mm
12:53 58.0 °F /  14.4 °C 36.8 °F /  2.7 °C 29.83 in /  1010 hPa WNW 5.2 mph /  8.4 km/h 10.4 mph /  16.7 km/h 45 % 0.00 in /  0 mm
12:58 58.2 °F /  14.6 °C 36.4 °F /  2.4 °C 29.82 in /  1009.7 hPa West 7.0 mph /  11.3 km/h 11.5 mph /  18.5 km/h 44 % 0.00 in /  0 mm
13:03 58.5 °F /  14.7 °C 36.1 °F /  2.3 °C 29.83 in /  1010 hPa WSW 8.1 mph /  13 km/h 16.1 mph /  25.9 km/h 43 % 0.00 in /  0 mm
13:08 58.2 °F /  14.6 °C 36.4 °F /  2.4 °C 29.82 in /  1009.7 hPa WNW 5.9 mph /  9.5 km/h 18.0 mph /  29 km/h 44 % 0.00 in /  0 mm
13:13 57.8 °F /  14.3 °C 36.0 °F /  2.2 °C 29.82 in /  1009.7 hPa West 4.9 mph /  7.9 km/h 11.5 mph /  18.5 km/h 44 % 0.00 in /  0 mm
13:18 57.7 °F /  14.3 °C 37.0 °F /  2.8 °C 29.82 in /  1009.7 hPa WSW 4.3 mph /  6.9 km/h 11.5 mph /  18.5 km/h 46 % 0.00 in /  0 mm
13:23 57.8 °F /  14.3 °C 36.6 °F /  2.6 °C 29.82 in /  1009.7 hPa WNW 3.0 mph /  4.8 km/h 13.8 mph /  22.2 km/h 45 % 0.00 in /  0 mm
13:28 58.0 °F /  14.4 °C 37.3 °F /  2.9 °C 29.82 in /  1009.7 hPa WNW 6.1 mph /  9.8 km/h 13.0 mph /  20.9 km/h 46 % 0.00 in /  0 mm
13:34 58.2 °F /  14.6 °C 36.9 °F /  2.7 °C 29.82 in /  1009.7 hPa WNW 6.9 mph /  11.1 km/h 13.8 mph /  22.2 km/h 45 % 0.00 in /  0 mm
13:39 58.4 °F /  14.7 °C 36.6 °F /  2.6 °C 29.82 in /  1009.7 hPa WNW 4.3 mph /  6.9 km/h 18.4 mph /  29.6 km/h 44 % 0.00 in /  0 mm
13:44 58.6 °F /  14.8 °C 36.7 °F /  2.6 °C 29.82 in /  1009.7 hPa NNW 8.5 mph /  13.7 km/h 14.0 mph /  22.5 km/h 44 % 0.01 in /  0.25 mm
13:49 58.8 °F /  14.9 °C 37.5 °F /  3.1 °C 29.82 in /  1009.7 hPa NW 5.9 mph /  9.5 km/h 11.5 mph /  18.5 km/h 45 % 0.01 in /  0.25 mm
13:54 59.2 °F /  15.1 °C 37.9 °F /  3.3 °C 29.82 in /  1009.7 hPa SW 8.3 mph /  13.4 km/h 13.8 mph /  22.2 km/h 45 % 0.01 in /  0.25 mm
13:59 59.4 °F /  15.2 °C 37.5 °F /  3.1 °C 29.83 in /  1010 hPa NNW 6.8 mph /  10.9 km/h 13.8 mph /  22.2 km/h 44 % 0.01 in /  0.25 mm
14:04 59.6 °F /  15.3 °C 37.6 °F /  3.1 °C 29.82 in /  1009.7 hPa WNW 6.4 mph /  10.3 km/h 12.0 mph /  19.3 km/h 44 % 0.01 in /  0.25 mm
14:09 59.8 °F /  15.4 °C 39.0 °F /  3.9 °C 29.83 in /  1010 hPa West 4.8 mph /  7.7 km/h 11.5 mph /  18.5 km/h 46 % 0.01 in /  0.25 mm
14:14 60.0 °F /  15.6 °C 38.0 °F /  3.3 °C 29.83 in /  1010 hPa West 5.2 mph /  8.4 km/h 15.0 mph /  24.1 km/h 44 % 0.01 in /  0.25 mm
14:19 59.9 °F /  15.5 °C 37.9 °F /  3.3 °C 29.83 in /  1010 hPa WNW 3.7 mph /  6 km/h 11.0 mph /  17.7 km/h 44 % 0.01 in /  0.25 mm
14:24 59.6 °F /  15.3 °C 36.5 °F /  2.5 °C 29.83 in /  1010 hPa WNW 7.2 mph /  11.6 km/h 11.5 mph /  18.5 km/h 42 % 0.01 in /  0.25 mm
14:29 59.3 °F /  15.2 °C 37.4 °F /  3 °C 29.83 in /  1010 hPa West 8.4 mph /  13.5 km/h 15.0 mph /  24.1 km/h 44 % 0.01 in /  0.25 mm
14:34 59.1 °F /  15.1 °C 36.6 °F /  2.6 °C 29.83 in /  1010 hPa West 3.5 mph /  5.6 km/h 11.5 mph /  18.5 km/h 43 % 0.01 in /  0.25 mm
14:39 59.2 °F /  15.1 °C 37.9 °F /  3.3 °C 29.83 in /  1010 hPa WNW 3.4 mph /  5.5 km/h 9.2 mph /  14.8 km/h 45 % 0.01 in /  0.25 mm
14:44 59.3 °F /  15.2 °C 36.8 °F /  2.7 °C 29.83 in /  1010 hPa SW 7.8 mph /  12.6 km/h 8.1 mph /  13 km/h 43 % 0.00 in /  0 mm
14:49 59.0 °F /  15 °C 37.1 °F /  2.8 °C 29.83 in /  1010 hPa NW 6.0 mph /  9.7 km/h 13.8 mph /  22.2 km/h 44 % 0.00 in /  0 mm
14:55 59.0 °F /  15 °C 37.1 °F /  2.8 °C 29.83 in /  1010 hPa WNW 5.4 mph /  8.7 km/h 9.2 mph /  14.8 km/h 44 % 0.00 in /  0 mm
15:00 59.5 °F /  15.3 °C 39.2 °F /  4 °C 29.83 in /  1010 hPa West 4.4 mph /  7.1 km/h 8.1 mph /  13 km/h 47 % 0.00 in /  0 mm
15:05 59.8 °F /  15.4 °C 37.8 °F /  3.2 °C 29.83 in /  1010 hPa WNW 7.1 mph /  11.4 km/h 11.0 mph /  17.7 km/h 44 % 0.00 in /  0 mm
15:10 60.0 °F /  15.6 °C 39.7 °F /  4.3 °C 29.82 in /  1009.7 hPa NW 1.6 mph /  2.6 km/h 6.9 mph /  11.1 km/h 47 % 0.00 in /  0 mm
15:15 60.4 °F /  15.8 °C 38.9 °F /  3.8 °C 29.83 in /  1010 hPa WNW 4.9 mph /  7.9 km/h 15.0 mph /  24.1 km/h 45 % 0.00 in /  0 mm
15:20 60.6 °F /  15.9 °C 38.0 °F /  3.3 °C 29.83 in /  1010 hPa WNW 6.0 mph /  9.7 km/h 15.0 mph /  24.1 km/h 43 % 0.00 in /  0 mm
15:25 60.8 °F /  16 °C 38.1 °F /  3.4 °C 29.83 in /  1010 hPa WNW 5.5 mph /  8.9 km/h 9.2 mph /  14.8 km/h 43 % 0.00 in /  0 mm
15:30 61.0 °F /  16.1 °C 39.5 °F /  4.2 °C 29.83 in /  1010 hPa West 3.6 mph /  5.8 km/h 9.2 mph /  14.8 km/h 45 % 0.00 in /  0 mm
15:35 61.0 °F /  16.1 °C 39.5 °F /  4.2 °C 29.83 in /  1010 hPa NW 3.2 mph /  5.1 km/h 7.0 mph /  11.3 km/h 45 % 0.00 in /  0 mm
15:40 61.1 °F /  16.2 °C 39.0 °F /  3.9 °C 29.83 in /  1010 hPa NW 3.2 mph /  5.1 km/h 6.9 mph /  11.1 km/h 44 % 0.00 in /  0 mm
15:45 61.1 °F /  16.2 °C 39.6 °F /  4.2 °C 29.83 in /  1010 hPa WNW 3.8 mph /  6.1 km/h 11.5 mph /  18.5 km/h 45 % 0.00 in /  0 mm
15:50 61.1 °F /  16.2 °C 39.6 °F /  4.2 °C 29.83 in /  1010 hPa NW 2.1 mph /  3.4 km/h 8.1 mph /  13 km/h 45 % 0.00 in /  0 mm
15:55 61.2 °F /  16.2 °C 39.1 °F /  3.9 °C 29.83 in /  1010 hPa WNW 5.9 mph /  9.5 km/h 11.5 mph /  18.5 km/h 44 % 0.00 in /  0 mm
16:00 61.1 °F /  16.2 °C 39.6 °F /  4.2 °C 29.83 in /  1010 hPa WNW 0.8 mph /  1.3 km/h 6.9 mph /  11.1 km/h 45 % 0.00 in /  0 mm
16:05 61.1 °F /  16.2 °C 40.1 °F /  4.5 °C 29.83 in /  1010 hPa NNW 2.9 mph /  4.7 km/h 6.9 mph /  11.1 km/h 46 % 0.00 in /  0 mm
16:10 61.1 °F /  16.2 °C 38.4 °F /  3.6 °C 29.83 in /  1010 hPa NW 2.6 mph /  4.2 km/h 5.8 mph /  9.3 km/h 43 % 0.00 in /  0 mm
16:15 61.0 °F /  16.1 °C 38.3 °F /  3.5 °C 29.83 in /  1010 hPa NW 4.4 mph /  7.1 km/h 8.1 mph /  13 km/h 43 % 0.00 in /  0 mm
16:20 60.9 °F /  16.1 °C 38.2 °F /  3.4 °C 29.83 in /  1010 hPa NW 2.6 mph /  4.2 km/h 4.6 mph /  7.4 km/h 43 % 0.00 in /  0 mm
16:25 60.9 °F /  16.1 °C 40.0 °F /  4.4 °C 29.83 in /  1010 hPa NW 2.6 mph /  4.2 km/h 5.0 mph /  8 km/h 46 % 0.00 in /  0 mm
16:30 60.9 °F /  16.1 °C 37.6 °F /  3.1 °C 29.84 in /  1010.4 hPa NW 4.2 mph /  6.8 km/h 8.1 mph /  13 km/h 42 % 0.00 in /  0 mm
16:36 60.9 °F /  16.1 °C 37.6 °F /  3.1 °C 29.84 in /  1010.4 hPa North 3.4 mph /  5.5 km/h 5.0 mph /  8 km/h 42 % 0.00 in /  0 mm
16:41 60.8 °F /  16 °C 39.4 °F /  4.1 °C 29.84 in /  1010.4 hPa NNW 3.0 mph /  4.8 km/h 6.0 mph /  9.7 km/h 45 % 0.00 in /  0 mm
16:46 60.8 °F /  16 °C 38.1 °F /  3.4 °C 29.84 in /  1010.4 hPa North 2.1 mph /  3.4 km/h 4.6 mph /  7.4 km/h 43 % 0.00 in /  0 mm
16:51 60.7 °F /  15.9 °C 39.2 °F /  4 °C 29.84 in /  1010.4 hPa NNW 2.0 mph /  3.2 km/h 6.0 mph /  9.7 km/h 45 % 0.00 in /  0 mm
16:56 60.7 °F /  15.9 °C 38.6 °F /  3.7 °C 29.84 in /  1010.4 hPa NNW 2.0 mph /  3.2 km/h 7.0 mph /  11.3 km/h 44 % 0.00 in /  0 mm
17:01 60.7 °F /  15.9 °C 37.5 °F /  3.1 °C 29.84 in /  1010.4 hPa NNW 2.9 mph /  4.7 km/h 5.8 mph /  9.3 km/h 42 % 0.00 in /  0 mm
17:06 60.6 °F /  15.9 °C 37.4 °F /  3 °C 29.84 in /  1010.4 hPa NW 2.0 mph /  3.2 km/h 5.8 mph /  9.3 km/h 42 % 0.00 in /  0 mm
17:11 60.3 °F /  15.7 °C 37.1 °F /  2.8 °C 29.84 in /  1010.4 hPa NNW 2.1 mph /  3.4 km/h 3.5 mph /  5.6 km/h 42 % 0.00 in /  0 mm
17:16 59.8 °F /  15.4 °C 36.0 °F /  2.2 °C 29.84 in /  1010.4 hPa NW 1.7 mph /  2.7 km/h 3.5 mph /  5.6 km/h 41 % 0.00 in /  0 mm
17:21 59.4 °F /  15.2 °C 38.0 °F /  3.3 °C 29.84 in /  1010.4 hPa WNW 2.1 mph /  3.4 km/h 4.6 mph /  7.4 km/h 45 % 0.00 in /  0 mm
17:26 59.2 °F /  15.1 °C 37.9 °F /  3.3 °C 29.84 in /  1010.4 hPa NW 3.0 mph /  4.8 km/h 5.0 mph /  8 km/h 45 % 0.00 in /  0 mm
17:31 59.0 °F /  15 °C 37.1 °F /  2.8 °C 29.84 in /  1010.4 hPa WNW 2.9 mph /  4.7 km/h 4.6 mph /  7.4 km/h 44 % 0.00 in /  0 mm
17:36 58.9 °F /  14.9 °C 39.2 °F /  4 °C 29.84 in /  1010.4 hPa NW 0.5 mph /  0.8 km/h 1.2 mph /  1.9 km/h 48 % 0.00 in /  0 mm
17:41 58.6 °F /  14.8 °C 39.5 °F /  4.2 °C 29.84 in /  1010.4 hPa WNW 2.5 mph /  4 km/h 3.5 mph /  5.6 km/h 49 % 0.00 in /  0 mm
17:46 58.3 °F /  14.6 °C 38.1 °F /  3.4 °C 29.84 in /  1010.4 hPa NNW 1.6 mph /  2.6 km/h 4.6 mph /  7.4 km/h 47 % 0.00 in /  0 mm
17:51 57.9 °F /  14.4 °C 37.2 °F /  2.9 °C 29.84 in /  1010.4 hPa NW 3.3 mph /  5.3 km/h 5.8 mph /  9.3 km/h 46 % 0.00 in /  0 mm
17:57 57.7 °F /  14.3 °C 38.7 °F /  3.7 °C 29.84 in /  1010.4 hPa NW 1.7 mph /  2.7 km/h 3.5 mph /  5.6 km/h 49 % 0.00 in /  0 mm
18:02 57.5 °F /  14.2 °C 39.0 °F /  3.9 °C 29.84 in /  1010.4 hPa NW 0.1 mph /  0.2 km/h 1.2 mph /  1.9 km/h 50 % 0.00 in /  0 mm
18:07 57.4 °F /  14.1 °C 38.9 °F /  3.8 °C 29.85 in /  1010.7 hPa NW 0.2 mph /  0.3 km/h 3.5 mph /  5.6 km/h 50 % 0.00 in /  0 mm
18:12 57.3 °F /  14.1 °C 39.8 °F /  4.3 °C 29.85 in /  1010.7 hPa NW 2.2 mph /  3.5 km/h 4.0 mph /  6.4 km/h 52 % 0.00 in /  0 mm
18:17 57.1 °F /  13.9 °C 37.6 °F /  3.1 °C 29.85 in /  1010.7 hPa WNW 1.3 mph /  2.1 km/h 4.0 mph /  6.4 km/h 48 % 0.00 in /  0 mm
18:22 57.0 °F /  13.9 °C 37.0 °F /  2.8 °C 29.85 in /  1010.7 hPa WNW 1.6 mph /  2.6 km/h 3.5 mph /  5.6 km/h 47 % 0.00 in /  0 mm
18:27 57.0 °F /  13.9 °C 38.0 °F /  3.3 °C 29.85 in /  1010.7 hPa NW 0.4 mph /  0.6 km/h 2.3 mph /  3.7 km/h 49 % 0.00 in /  0 mm
18:28 56.9 °F /  13.8 °C 38.4 °F /  3.6 °C 29.85 in /  1010.7 hPa NW 0.4 mph /  0.6 km/h 2.3 mph /  3.7 km/h 50 % 0.00 in /  0 mm
18:33 56.9 °F /  13.8 °C 37.4 °F /  3 °C 29.85 in /  1010.7 hPa NW 1.1 mph /  1.8 km/h 3.5 mph /  5.6 km/h 48 % 0.00 in /  0 mm
18:38 56.8 °F /  13.8 °C 37.3 °F /  2.9 °C 29.85 in /  1010.7 hPa NW 0.6 mph /  1 km/h 1.2 mph /  1.9 km/h 48 % 0.00 in /  0 mm
18:43 56.7 °F /  13.7 °C 38.3 °F /  3.5 °C 29.85 in /  1010.7 hPa NW 0.4 mph /  0.6 km/h 1.2 mph /  1.9 km/h 50 % 0.00 in /  0 mm
18:49 56.6 °F /  13.7 °C 37.1 °F /  2.8 °C 29.86 in /  1011.1 hPa Calm   3.5 mph /  5.6 km/h 48 % 0.00 in /  0 mm
18:54 56.4 °F /  13.6 °C 37.5 °F /  3.1 °C 29.86 in /  1011.1 hPa Calm   1.2 mph /  1.9 km/h 49 % 0.00 in /  0 mm
18:59 56.3 °F /  13.5 °C 37.9 °F /  3.3 °C 29.86 in /  1011.1 hPa NW 0.1 mph /  0.2 km/h 1.2 mph /  1.9 km/h 50 % 0.00 in /  0 mm
19:04 56.1 °F /  13.4 °C 37.2 °F /  2.9 °C 29.86 in /  1011.1 hPa Calm   1.2 mph /  1.9 km/h 49 % 0.00 in /  0 mm
19:09 55.9 °F /  13.3 °C 37.5 °F /  3.1 °C 29.86 in /  1011.1 hPa Calm     50 % 0.00 in /  0 mm
19:14 55.7 °F /  13.2 °C 37.3 °F /  2.9 °C 29.86 in /  1011.1 hPa Calm   1.0 mph /  1.6 km/h 50 % 0.00 in /  0 mm
19:19 55.5 °F /  13.1 °C 38.1 °F /  3.4 °C 29.86 in /  1011.1 hPa Calm     52 % 0.00 in /  0 mm
19:24 55.3 °F /  12.9 °C 37.5 °F /  3.1 °C 29.87 in /  1011.4 hPa Calm     51 % 0.00 in /  0 mm
19:29 55.1 °F /  12.8 °C 37.3 °F /  2.9 °C 29.87 in /  1011.4 hPa Calm     51 % 0.00 in /  0 mm
19:34 54.9 °F /  12.7 °C 37.1 °F /  2.8 °C 29.87 in /  1011.4 hPa Calm     51 % 0.00 in /  0 mm
19:39 54.7 °F /  12.6 °C 36.9 °F /  2.7 °C 29.86 in /  1011.1 hPa Calm     51 % 0.00 in /  0 mm
19:44 54.5 °F /  12.5 °C 37.2 °F /  2.9 °C 29.87 in /  1011.4 hPa Calm     52 % 0.00 in /  0 mm
19:49 54.2 °F /  12.3 °C 37.9 °F /  3.3 °C 29.87 in /  1011.4 hPa Calm     54 % 0.00 in /  0 mm
19:54 53.9 °F /  12.2 °C 38.1 °F /  3.4 °C 29.87 in /  1011.4 hPa Calm     55 % 0.00 in /  0 mm
19:59 53.6 °F /  12 °C 38.3 °F /  3.5 °C 29.87 in /  1011.4 hPa Calm     56 % 0.00 in /  0 mm
20:04 53.3 °F /  11.8 °C 38.4 °F /  3.6 °C 29.87 in /  1011.4 hPa Calm     57 % 0.00 in /  0 mm
20:09 52.8 °F /  11.6 °C 38.9 °F /  3.8 °C 29.87 in /  1011.4 hPa Calm     59 % 0.00 in /  0 mm
20:14 52.4 °F /  11.3 °C 38.9 °F /  3.8 °C 29.87 in /  1011.4 hPa Calm     60 % 0.00 in /  0 mm
20:19 52.0 °F /  11.1 °C 38.5 °F /  3.6 °C 29.87 in /  1011.4 hPa Calm     60 % 0.00 in /  0 mm
20:24 51.7 °F /  10.9 °C 38.3 °F /  3.5 °C 29.87 in /  1011.4 hPa Calm     60 % 0.00 in /  0 mm
20:29 51.4 °F /  10.8 °C 38.4 °F /  3.6 °C 29.87 in /  1011.4 hPa Calm     61 % 0.00 in /  0 mm
20:34 51.2 °F /  10.7 °C 37.8 °F /  3.2 °C 29.87 in /  1011.4 hPa Calm     60 % 0.00 in /  0 mm
20:39 51.0 °F /  10.6 °C 38.0 °F /  3.3 °C 29.87 in /  1011.4 hPa Calm     61 % 0.00 in /  0 mm
20:44 50.8 °F /  10.4 °C 37.8 °F /  3.2 °C 29.88 in /  1011.7 hPa Calm     61 % 0.00 in /  0 mm
20:49 50.6 °F /  10.3 °C 38.1 °F /  3.4 °C 29.87 in /  1011.4 hPa Calm     62 % 0.00 in /  0 mm
20:54 50.4 °F /  10.2 °C 37.9 °F /  3.3 °C 29.87 in /  1011.4 hPa Calm     62 % 0.00 in /  0 mm
20:59 50.3 °F /  10.2 °C 38.2 °F /  3.4 °C 29.87 in /  1011.4 hPa Calm     63 % 0.00 in /  0 mm
21:04 50.1 °F /  10.1 °C 38.0 °F /  3.3 °C 29.87 in /  1011.4 hPa Calm     63 % 0.00 in /  0 mm
21:09 50.0 °F /  10 °C 38.3 °F /  3.5 °C 29.88 in /  1011.7 hPa Calm     64 % 0.00 in /  0 mm
21:14 49.9 °F /  9.9 °C 38.2 °F /  3.4 °C 29.88 in /  1011.7 hPa Calm     64 % 0.00 in /  0 mm
21:19 49.9 °F /  9.9 °C 38.6 °F /  3.7 °C 29.88 in /  1011.7 hPa Calm     65 % 0.00 in /  0 mm
21:24 49.8 °F /  9.9 °C 38.5 °F /  3.6 °C 29.88 in /  1011.7 hPa Calm     65 % 0.00 in /  0 mm
21:29 49.7 °F /  9.8 °C 38.4 °F /  3.6 °C 29.88 in /  1011.7 hPa Calm     65 % 0.00 in /  0 mm
21:34 49.7 °F /  9.8 °C 38.8 °F /  3.8 °C 29.88 in /  1011.7 hPa Calm     66 % 0.00 in /  0 mm
21:39 49.6 °F /  9.8 °C 38.3 °F /  3.5 °C 29.89 in /  1012.1 hPa Calm     65 % 0.00 in /  0 mm
21:44 49.6 °F /  9.8 °C 39.1 °F /  3.9 °C 29.89 in /  1012.1 hPa Calm     67 % 0.00 in /  0 mm
21:49 49.6 °F /  9.8 °C 39.1 °F /  3.9 °C 29.89 in /  1012.1 hPa Calm     67 % 0.00 in /  0 mm
21:54 49.5 °F /  9.7 °C 39.4 °F /  4.1 °C 29.89 in /  1012.1 hPa Calm     68 % 0.00 in /  0 mm
21:59 49.4 °F /  9.7 °C 39.3 °F /  4.1 °C 29.89 in /  1012.1 hPa NW 0.4 mph /  0.6 km/h 1.2 mph /  1.9 km/h 68 % 0.00 in /  0 mm
22:05 49.4 °F /  9.7 °C 39.7 °F /  4.3 °C 29.89 in /  1012.1 hPa Calm     69 % 0.00 in /  0 mm
22:10 49.2 °F /  9.6 °C 39.5 °F /  4.2 °C 29.89 in /  1012.1 hPa Calm   1.2 mph /  1.9 km/h 69 % 0.00 in /  0 mm
22:15 49.2 °F /  9.6 °C 39.5 °F /  4.2 °C 29.89 in /  1012.1 hPa Calm     69 % 0.00 in /  0 mm
22:20 49.1 °F /  9.5 °C 39.4 °F /  4.1 °C 29.90 in /  1012.4 hPa Calm     69 % 0.00 in /  0 mm
22:25 49.0 °F /  9.4 °C 38.9 °F /  3.8 °C 29.90 in /  1012.4 hPa Calm     68 % 0.00 in /  0 mm
22:30 48.9 °F /  9.4 °C 38.4 °F /  3.6 °C 29.90 in /  1012.4 hPa Calm     67 % 0.00 in /  0 mm
22:35 48.9 °F /  9.4 °C 39.2 °F /  4 °C 29.89 in /  1012.1 hPa Calm     69 % 0.00 in /  0 mm
22:40 48.8 °F /  9.3 °C 39.8 °F /  4.3 °C 29.90 in /  1012.4 hPa Calm     71 % 0.00 in /  0 mm
22:45 48.7 °F /  9.3 °C 39.7 °F /  4.3 °C 29.90 in /  1012.4 hPa Calm     71 % 0.00 in /  0 mm
22:50 48.6 °F /  9.2 °C 40.3 °F /  4.6 °C 29.90 in /  1012.4 hPa NNE 0.6 mph /  1 km/h 3.5 mph /  5.6 km/h 73 % 0.00 in /  0 mm
22:55 48.7 °F /  9.3 °C 40.8 °F /  4.9 °C 29.90 in /  1012.4 hPa NE 2.3 mph /  3.7 km/h 3.5 mph /  5.6 km/h 74 % 0.00 in /  0 mm
23:00 48.8 °F /  9.3 °C 40.2 °F /  4.6 °C 29.90 in /  1012.4 hPa NE 2.5 mph /  4 km/h 3.5 mph /  5.6 km/h 72 % 0.00 in /  0 mm
23:05 49.1 °F /  9.5 °C 40.5 °F /  4.7 °C 29.90 in /  1012.4 hPa ENE 3.6 mph /  5.8 km/h 4.6 mph /  7.4 km/h 72 % 0.00 in /  0 mm
23:10 49.5 °F /  9.7 °C 39.7 °F /  4.3 °C 29.90 in /  1012.4 hPa ENE 3.5 mph /  5.6 km/h 5.8 mph /  9.3 km/h 69 % 0.00 in /  0 mm
23:15 49.7 °F /  9.8 °C 39.6 °F /  4.2 °C 29.90 in /  1012.4 hPa ENE 2.0 mph /  3.2 km/h 4.0 mph /  6.4 km/h 68 % 0.00 in /  0 mm
23:20 50.0 °F /  10 °C 39.8 °F /  4.3 °C 29.90 in /  1012.4 hPa ENE 1.2 mph /  1.9 km/h 2.3 mph /  3.7 km/h 68 % 0.00 in /  0 mm
23:25 50.2 °F /  10.1 °C 40.0 °F /  4.4 °C 29.90 in /  1012.4 hPa ENE 1.1 mph /  1.8 km/h 2.3 mph /  3.7 km/h 68 % 0.00 in /  0 mm
23:30 50.4 °F /  10.2 °C 41.0 °F /  5 °C 29.91 in /  1012.8 hPa NE 2.5 mph /  4 km/h 4.0 mph /  6.4 km/h 70 % 0.00 in /  0 mm
23:35 50.5 °F /  10.3 °C 40.7 °F /  4.8 °C 29.91 in /  1012.8 hPa NE 1.8 mph /  2.9 km/h 3.5 mph /  5.6 km/h 69 % 0.00 in /  0 mm
23:40 50.6 °F /  10.3 °C 41.2 °F /  5.1 °C 29.91 in /  1012.8 hPa ENE 1.9 mph /  3.1 km/h 3.5 mph /  5.6 km/h 70 % 0.00 in /  0 mm
23:45 50.6 °F /  10.3 °C 40.8 °F /  4.9 °C 29.91 in /  1012.8 hPa ENE 1.9 mph /  3.1 km/h 3.5 mph /  5.6 km/h 69 % 0.00 in /  0 mm
23:50 50.7 °F /  10.4 °C 40.1 °F /  4.5 °C 29.91 in /  1012.8 hPa ENE 2.2 mph /  3.5 km/h 3.5 mph /  5.6 km/h 67 % 0.00 in /  0 mm
23:55 50.8 °F /  10.4 °C 41.0 °F /  5 °C 29.91 in /  1012.8 hPa ENE 1.4 mph /  2.3 km/h 2.3 mph /  3.7 km/h 69 % 0.00 in /  0 mm
Crab Meadow Weather
Compliments of Weather Underground - 3 mb

Script developed by  Jim McMurry - jmcmurry@mwt.net Adapted for the template by  Wim van der Kuil - Leuven-Template.eu

Weather Terms: Ice Storm Warning - Accumulations of 1/4 inch or more of freezing rain.